This demonstration page uses our WeatherBlox Daily Observations layout. Learn more.

Left ArrowRight Arrow

39.29038, -76.61219

Hourly Observations for January 15, 2022

Temp ( °F °C ) Dew Point ( °F °C ) Humidity (%) Winds ( mph kmh ) Pressure ( in mb ) Visibility ( mi km ) Precip ( " mm )
12:54 am 00:54 Clear 28 -2.2 13 -10.6 53 53 NNW 8 13 30.09 1019 10 16 N/A
1:54 am 01:54 Clear 27 -2.8 8 -13.3 45 45 N 10 17 30.12 1020 10 16 N/A
2:54 am 02:54 Clear 25 -3.9 7 -13.9 46 46 NNW 7 11 30.14 1021 10 16 N/A
3:54 am 03:54 Mostly Clear 24 -4.4 4 -15.6 42 42 NNW 9 15 30.15 1021 10 16 N/A
4:54 am 04:54 Mostly Clear 22 -5.6 4 -15.6 46 46 NNW 10 17 30.17 1022 10 16 N/A
5:54 am 05:54 Mostly Clear 21 -6.1 2 -16.7 43 43 VRB 6 9 30.20 1023 10 16 N/A
6:54 am 06:54 Mostly Clear 20 -6.7 1 -17.2 43 43 N 10 17 30.23 1024 10 16 N/A
7:54 am 07:54 Mostly Cloudy 19 -7.2 -1 -18.3 41 41 NNW 9 15 30.26 1025 10 16 N/A
8:54 am 08:54 Mostly Cloudy 20 -6.7 -1 -18.3 40 40 N 7 11 30.29 1026 10 16 N/A
9:54 am 09:54 Mostly Cloudy 22 -5.6 -1 -18.3 36 36 N 8 13 30.33 1027 10 16 N/A
10:54 am 10:54 Mostly Cloudy 22 -5.6 -2 -18.9 35 35 N 9 15 30.33 1027 10 16 N/A
11:54 am 11:54 Cloudy 24 -4.4 -2 -18.9 32 32 NW 9 15 30.34 1027 10 16 N/A
12:54 pm 12:54 Cloudy 24 -4.4 -2 -18.9 32 32 N 9 15 30.33 1027 10 16 N/A
1:54 pm 13:54 Mostly Cloudy 26 -3.3 -3 -19.4 28 28 N 10 17 30.31 1027 10 16 N/A
2:54 pm 14:54 Mostly Cloudy 25 -3.9 -3 -19.4 29 29 N 9 15 30.32 1027 10 16 N/A
3:54 pm 15:54 Cloudy 25 -3.9 -2 -18.9 30 30 NNW 9 15 30.32 1027 10 16 N/A
4:54 pm 16:54 Cloudy 25 -3.9 -2 -18.9 30 30 NNE 7 11 30.34 1028 10 16 N/A
5:54 pm 17:54 Cloudy 24 -4.4 -1 -18.3 33 33 N 9 15 30.34 1028 10 16 N/A
6:54 pm 18:54 Cloudy 23 -5 -1 -18.3 35 35 N 6 9 30.37 1029 10 16 N/A
7:54 pm 19:54 Mostly Cloudy 21 -6.1 N/A 39 39 N 5 7 30.40 1029 10 16 N/A
8:54 pm 20:54 Mostly Clear 20 -6.7 N/A 41 41 N 7 11 30.40 1030 10 16 N/A
9:54 pm 21:54 Mostly Clear 20 -6.7 N/A 41 41 N 6 9 30.39 1029 10 16 N/A
10:54 pm 22:54 Clear 19 -7.2 N/A 43 43 N 5 7 30.40 1029 10 16 N/A
11:54 pm 23:54 Clear 18 -7.8 -1 -18.3 43 43 N 5 7 30.39 1029 10 16 N/A

Powered by AerisWeather